GFSFLT1_925_temp_132.txt.gz
Temp
22 21 22 22 23 23 24 24 21 19 18 18 19 20 19 20 20 19 18 17 17 17 18 17 18 20 18 17 18 19 19 19
21 20 20 20 21 22 23 24 22 20 18 18 18 18 17 19 20 19 19 17 17 16 17 17 17 20 20 17 17 17 17 18
21 20 20 20 20 20 22 23 23 21 20 19 19 19 19 18 18 18 18 16 16 16 17 20 19 20 19 17 17 17 17 16
21 21 20 19 19 19 20 23 24 22 21 20 20 21 21 20 20 20 19 18 17 16 16 19 19 18 18 16 16 17 16 16
17 19 20 19 19 19 20 22 23 22 21 21 20 21 22 22 21 21 20 19 19 18 18 18 18 17 16 16 16 17 18 16
15 20 20 20 19 19 20 22 23 23 21 21 21 21 22 22 21 21 19 18 19 18 18 17 16 16 16 16 15 16 17 17
9 10 14 16 16 17 19 20 22 23 21 20 21 21 22 22 20 19 18 17 17 17 16 16 16 16 17 17 16 16 16 16
5 6 7 8 10 12 12 11 9 11 15 16 18 20 19 19 18 17 16 16 16 16 15 16 17 18 19 20 16 18 16 16
3 4 5 5 5 8 8 8 8 8 8 9 11 12 14 14 14 16 16 16 16 16 15 16 15 17 18 18 18 18 16 16
2 3 3 4 4 5 5 7 7 6 7 8 9 9 10 11 11 13 14 15 15 15 16 17 17 16 17 17 16 16 15 15
1 1 1 2 3 4 4 5 6 6 6 7 8 9 9 10 10 11 11 12 12 13 13 14 14 15 15 15 15 16 15 15
1 0 -0 0 1 2 3 2 3 5 5 6 6 6 7 7 8 9 8 8 10 10 11 12 13 13 14 14 15 15 15 15
0 -0 -0 0 1 1 1 2 2 3 4 5 5 5 5 5 6 6 5 8 8 9 10 10 11 12 13 14 15 14 15 15
-0 -1 -1 -1 -1 -1 -0 -0 -0 0 2 2 2 3 4 5 5 3 5 5 6 8 9 10 11 11 12 13 14 15 15 14
-0 -0 -1 -2 -2 -2 -1 -1 -1 -1 0 1 2 2 2 3 3 3 4 4 5 6 7 8 9 10 11 12 13 14 15 15
-0 -0 -1 -2 -2 -2 -2 -2 -1 -0 -1 -1 -0 0 2 2 3 3 3 3 4 4 5 6 7 9 10 11 11 12 15 15
0 -1 -1 -2 -2 -2 -2 -2 -1 -1 -0 -1 -1 0 0 1 1 2 3 3 3 2 3 4 5 6 8 8 9 9 12 15
-0 -0 -1 -2 -2 -2 -2 -1 -1 -0 -0 -1 -1 -1 -0 -0 1 1 1 2 2 2 2 2 3 4 5 5 6 6 8 13
-0 -2 -2 -3 -3 -2 -2 -1 -1 -1 -1 -1 -1 -1 -1 -1 -1 -0 0 1 1 1 1 1 2 2 1 1 4 6 9 12

GFSFLT1_925_temp_138.txt.gz
Temp
15 14 13 13 14 17 19 22 23 24 24 23 22 22 23 23 23 23 23 21 21 21 21 21 21 21 20 21 21 21 21 22
13 12 11 11 11 12 13 16 16 22 22 23 21 21 21 21 22 22 22 21 21 21 21 21 21 21 20 21 21 21 21 21
12 11 10 8 8 10 12 12 12 19 22 22 22 21 21 21 21 21 22 20 21 21 20 21 21 21 20 20 21 20 20 21
10 10 8 7 6 7 9 10 11 17 22 22 22 21 20 21 20 21 21 20 20 21 19 20 20 20 20 20 20 20 20 20
9 8 7 6 5 5 6 7 9 11 21 21 21 21 20 20 20 21 21 21 19 19 19 20 19 20 20 20 19 19 19 19
7 6 5 5 4 3 3 4 7 9 10 20 21 20 20 20 20 21 22 21 20 18 18 19 19 19 20 21 18 18 19 19
5 4 3 3 3 1 2 3 4 6 8 10 15 19 19 19 20 20 22 21 18 17 17 18 18 19 20 20 19 19 20 19
4 3 2 1 1 1 1 2 2 5 6 8 10 14 17 19 19 20 21 21 20 17 17 17 17 19 19 19 19 20 20 18
3 2 0 0 -0 0 0 1 1 2 5 7 8 11 12 15 17 20 21 21 20 19 17 17 17 18 17 18 18 19 17 16
2 1 -0 -0 -1 -1 -1 0 0 2 3 5 7 8 9 10 13 17 21 21 20 20 18 18 18 18 17 18 18 17 15 15
2 0 -0 -1 -1 -1 -1 -1 -0 0 2 4 5 5 6 7 8 12 11 18 18 18 18 17 17 17 16 17 16 16 16 16
1 0 -1 -1 -1 -1 -1 -1 -1 -0 1 2 4 4 4 5 6 7 8 9 12 13 13 13 15 15 16 15 16 17 17 17
1 0 -0 -1 -1 -2 -1 -1 -1 -1 -0 1 1 2 2 3 4 5 6 6 8 10 11 11 11 13 14 14 15 15 16 16
1 1 -0 -1 -1 -1 -1 -1 -1 -1 -1 -0 0 0 1 2 1 4 5 5 6 7 8 9 9 10 11 13 14 14 15 16
1 1 0 -1 -1 -2 -2 -1 -1 -1 -1 -1 -0 -0 -0 0 1 2 3 4 4 5 6 6 7 8 8 7 8 9 10 11
2 1 0 -1 -1 -1 -1 -1 -1 -1 -1 -1 -1 -0 -0 -0 0 1 2 2 2 3 4 4 5 5 1 2 3 3 5 6
3 2 0 -1 -2 -2 -1 -1 -2 -2 -1 -1 -1 -1 -0 0 -0 0 0 1 2 2 2 2 2 1 1 1 1 1 3 3
3 2 0 -2 -2 -2 -2 -2 -2 -2 -2 -2 -2 -1 -0 -1 0 1 1 1 1 1 1 1 0 -1 -2 -3 -3 -2 -0 1
2 1 -1 -2 -3 -3 -3 -3 -3 -3 -3 -2 -2 -2 -1 -2 -2 -1 0 1 -0 -0 -0 -0 -0 -1 -2 -3 -4 -3 -1 -0

GFSFLT1_925_temp_141.txt.gz
Temp
10 9 9 8 7 6 6 6 8 9 10 13 17 21 22 21 23 22 21 21 21 20 20 20 20 20 20 21 21 21 22 22
8 8 7 6 6 5 4 5 5 6 8 10 11 18 21 21 21 22 22 21 21 21 20 20 20 19 20 20 21 21 21 21
7 6 5 5 5 5 4 3 3 5 6 8 9 13 21 21 21 21 21 22 21 21 20 20 20 19 20 20 20 20 21 21
6 5 4 3 3 3 3 2 2 4 5 6 8 12 18 21 20 20 20 21 21 21 20 20 20 19 19 19 20 20 19 20
5 4 3 2 2 1 1 1 2 3 3 5 7 8 12 19 20 20 20 20 20 20 20 20 20 19 19 19 20 20 19 19
3 3 2 1 1 1 0 0 1 2 2 4 6 8 9 12 17 19 19 19 20 20 20 20 20 20 19 19 19 19 19 19
3 2 1 0 0 -0 -0 -0 0 1 1 3 5 7 8 10 12 16 18 18 19 20 19 19 19 19 18 19 20 19 19 19
2 1 1 -0 -1 -1 -1 -1 -0 0 1 2 4 6 7 8 10 13 16 17 18 19 18 18 18 18 19 20 19 18 19 18
2 1 0 -0 -1 -1 -1 -1 -1 -1 0 1 2 5 5 7 8 11 14 16 17 17 16 18 18 18 19 19 18 17 18 19
1 1 -0 -1 -1 -1 -1 -1 -1 -1 -1 -0 1 3 4 5 7 9 12 14 13 14 14 17 17 19 18 17 17 17 18 18
1 0 -1 -1 -1 -2 -2 -1 -1 -1 -1 -1 0 1 2 3 6 6 8 10 12 13 13 15 16 17 18 17 16 16 17 17
1 0 -1 -1 -2 -2 -2 -2 -1 -1 -1 -1 -1 -0 1 2 3 4 5 7 9 11 12 15 16 16 17 16 16 16 16 16
1 0 -0 -1 -2 -2 -2 -2 -2 -2 -2 -1 -1 -1 -0 1 1 2 3 4 6 10 8 9 12 11 12 14 14 13 15 16
1 0 -1 -1 -2 -2 -2 -2 -2 -2 -2 -2 -1 -1 -0 -0 0 1 2 2 3 5 7 3 3 5 6 8 9 10 11 11
1 0 -1 -2 -2 -2 -2 -2 -2 -3 -2 -2 -2 -1 -1 -0 -0 -0 0 1 1 2 3 2 -0 -0 2 2 5 7 8 9
1 0 -1 -2 -2 -2 -2 -2 -2 -3 -2 -2 -2 -2 -2 -1 -1 -1 -1 -0 0 0 1 1 -0 -2 -2 -2 -0 3 5 6
2 0 -1 -2 -3 -3 -3 -3 -3 -3 -3 -3 -2 -2 -2 -2 -2 -1 -1 -1 -1 -1 -1 -1 -1 -2 -3 -3 -3 -1 1 1
1 -1 -2 -3 -3 -3 -3 -3 -3 -3 -3 -2 -3 -2 -3 -3 -3 -2 -2 -2 -2 -2 -2 -2 -2 -3 -3 -3 -3 -3 -2 -1
-0 -2 -2 -3 -3 -3 -3 -3 -3 -3 -3 -3 -3 -3 -3 -3 -4 -4 -3 -3 -3 -3 -3 -4 -4 -4 -4 -4 -4 -4 -3 -2

GFSFLT1_925_temp_144.txt.gz
Temp
6 5 4 3 3 3 3 3 3 4 5 4 6 9 11 15 16 19 20 20 20 20 19 18 18 18 18 18 18 19 19 20
5 4 3 2 2 2 1 1 1 2 2 3 4 5 8 11 15 16 19 21 20 20 20 18 19 18 18 18 18 18 18 20
4 4 2 2 1 1 1 0 1 1 2 2 3 5 6 8 12 16 18 20 21 20 19 19 18 18 18 18 18 18 18 19
4 3 2 1 1 0 -0 0 0 1 1 2 3 4 6 8 9 12 15 19 19 20 19 19 18 18 18 18 18 18 18 19
3 2 1 1 -0 -1 -1 -0 -0 0 0 1 2 3 5 7 7 9 11 15 18 20 20 19 17 18 19 18 18 18 19 19
2 1 1 0 -0 -1 -1 -0 -1 -1 -0 0 1 2 4 5 7 8 9 12 16 18 19 19 17 16 19 18 18 18 19 19
1 1 1 0 -0 -1 -1 -1 -1 -1 -1 -0 1 1 2 4 6 7 9 10 13 16 17 18 17 16 17 18 18 18 18 19
1 1 0 -0 -1 -1 -1 -1 -1 -1 -1 -1 -0 1 1 2 4 5 6 8 11 14 16 16 17 17 15 17 17 17 18 18
0 1 0 -1 -1 -2 -2 -1 -1 -1 -1 -1 -1 -0 0 1 3 3 5 7 10 12 14 15 16 17 15 15 17 19 17 17
1 0 0 -1 -1 -2 -2 -2 -2 -2 -2 -2 -1 -1 -0 0 1 2 4 6 8 9 12 13 15 16 15 15 16 19 17 17
1 -0 -1 -1 -2 -2 -2 -2 -2 -2 -2 -2 -2 -1 -1 -0 0 1 2 4 6 8 11 13 14 17 18 15 15 17 17 17
1 -0 -1 -2 -3 -2 -2 -2 -2 -3 -2 -2 -2 -2 -2 -1 -1 -0 1 3 5 5 7 11 13 16 13 10 12 17 16 16
1 -0 -2 -3 -3 -3 -2 -2 -3 -3 -3 -2 -2 -2 -2 -2 -1 -1 -0 1 3 2 3 5 7 9 12 8 9 15 16 15
-2 -1 -2 -2 -3 -3 -3 -3 -3 -3 -3 -3 -2 -3 -2 -2 -2 -1 -1 -0 1 1 1 1 3 5 5 6 7 4 12 13
-3 -2 -3 -3 -3 -3 -3 -3 -3 -3 -3 -3 -3 -3 -3 -3 -3 -2 -2 -1 -1 -1 -1 -1 -1 -1 4 5 4 1 4 6
-2 -4 -3 -3 -3 -3 -3 -3 -3 -3 -3 -3 -3 -3 -3 -4 -4 -3 -3 -2 -2 -2 -3 -3 -3 -2 -2 2 3 -0 0 2
-1 -1 -3 -3 -3 -3 -4 -3 -3 -3 -3 -3 -3 -3 -3 -4 -4 -4 -4 -3 -4 -4 -4 -4 -4 -4 -3 -1 2 1 0 -0
-1 -2 -3 -3 -4 -4 -4 -4 -4 -3 -3 -3 -3 -3 -4 -4 -5 -5 -5 -5 -5 -5 -5 -5 -5 -4 -4 -2 -1 -0 -1 -2
-2 -3 -4 -4 -5 -5 -5 -5 -4 -4 -4 -4 -4 -4 -4 -5 -5 -5 -6 -5 -5 -6 -6 -6 -5 -5 -5 -5 -3 -3 -3 -3

GFSFLT1_925_temp_147.txt.gz
Temp
4 3 2 1 1 1 1 1 2 2 1 2 2 3 4 5 7 8 11 14 15 17 18 18 17 17 17 16 16 16 16 17
4 3 2 1 1 0 -0 -0 0 0 1 1 2 2 3 4 5 7 9 11 14 15 17 18 17 17 17 17 16 16 16 17
3 3 1 1 0 -0 -1 -1 0 -0 0 0 1 2 2 4 5 6 7 8 11 13 16 17 19 17 17 17 16 16 16 16
3 2 1 0 -0 -1 -1 -0 -0 0 -0 -0 0 1 2 4 4 5 6 6 8 10 13 15 17 17 16 16 17 17 17 16
2 1 1 0 -0 -1 -1 -1 -1 -0 -1 -0 -0 0 1 2 3 4 6 6 7 9 11 13 16 17 17 15 16 17 18 17
1 1 1 0 -0 -1 -1 -1 -1 -1 -1 -1 -1 -0 0 1 2 3 4 5 6 7 9 12 15 16 17 16 15 16 17 19
1 1 1 0 -0 -1 -1 -1 -1 -1 -1 -1 -1 -1 -1 0 1 2 3 4 5 7 9 11 13 15 17 17 17 15 16 17
0 1 0 -0 -1 -2 -2 -2 -1 -2 -2 -2 -2 -1 -1 -1 0 1 1 3 5 6 7 9 12 15 16 17 17 16 16 13
2 -0 -1 -2 -2 -3 -2 -2 -2 -2 -2 -2 -2 -2 -1 -1 -1 0 1 1 3 4 6 8 10 12 15 16 15 14 14 14
1 -1 -2 -3 -3 -3 -3 -2 -2 -2 -2 -2 -2 -2 -2 -2 -1 -1 -0 0 2 3 5 6 8 11 14 16 16 15 15 14
1 -1 -2 -3 -3 -3 -3 -3 -2 -3 -3 -2 -2 -2 -2 -2 -2 -1 -2 -1 0 2 2 3 5 8 11 15 15 15 15 13
-2 -2 -2 -3 -3 -3 -3 -3 -3 -3 -3 -3 -3 -3 -3 -3 -2 -2 -2 -2 -1 -0 0 1 1 5 8 12 12 13 14 14
-2 -2 -3 -3 -4 -4 -3 -3 -3 -3 -3 -3 -3 -3 -3 -3 -3 -3 -3 -2 -3 -2 -2 -1 -1 1 4 5 9 11 12 13
-5 -3 -3 -3 -4 -4 -4 -3 -3 -3 -3 -3 -3 -3 -4 -4 -4 -4 -4 -4 -4 -4 -3 -3 -2 -2 0 2 4 6 10 9
-5 -4 -4 -3 -3 -4 -4 -4 -4 -3 -3 -3 -3 -3 -4 -5 -5 -4 -4 -4 -5 -5 -5 -4 -4 -3 -1 0 2 4 3 4
-4 -2 -4 -4 -4 -4 -4 -5 -4 -4 -4 -4 -4 -4 -4 -5 -5 -5 -5 -5 -5 -6 -5 -5 -4 -4 -3 -1 -0 1 2 3
-1 -2 -3 -4 -5 -5 -5 -5 -5 -4 -4 -4 -4 -4 -4 -5 -5 -6 -6 -6 -6 -6 -6 -5 -5 -4 -4 -3 -2 -1 -1 -0
-2 -3 -4 -4 -5 -6 -6 -6 -5 -5 -5 -5 -5 -4 -5 -5 -6 -6 -6 -6 -6 -6 -7 -6 -5 -5 -5 -4 -4 -3 -3 -3
-2 -4 -5 -5 -5 -5 -5 -6 -6 -6 -5 -5 -5 -5 -6 -6 -6 -6 -7 -6 -6 -6 -7 -7 -6 -6 -6 -6 -5 -5 -5 -6